Flag for Australia Weather past 2 weeks in Toowoomba, Queensland, Australia

Now
50 °F

Cool.


Feels Like: 50 °F
Forecast: 44 / 67 °F
Wind: No wind

Location: Oakey Aerodrome

Current Time: Apr 27, 2015 at 10:25:38 PM

Latest Report: Apr 27, 2015 at 9:00 PM


Visibility: N/A

Pressure: 30.12 "Hg

Humidity: 67%

Dew point: 39 °F

Location of ToowoombaLocation

Historic Weather in Toowoomba — Graph

°F

Toowoomba temperature yesterday

Maximum temperature yesterday: 65 °F (at 1:00 PM)
Minimum temperature yesterday: 46 °F (at 9:00 PM)
Average temperature yesterday: 56 °F

Past Weeks' High & Low Weather Summary

 TemperatureHumidityPressure
High82 °F (Apr 17, 3:00 PM)98% (Apr 23, 7:00 AM)30.30 "Hg (Apr 23, 7:00 AM)
Low40 °F (Apr 23, 6:00 AM)24% (Apr 25, 3:00 PM)29.76 "Hg (Apr 25, 3:00 PM)
Average62 °F70%30.05 "Hg
* Reported Apr 12 9:00 PM — Apr 27 9:00 PM, Toowoomba, Weather by CustomWeather, © 2015

Note: Actual official high and low records may vary slightly from our data, if they occured in-between our weather recording intervals... More about our weather records

Advertising

Toowoomba weather history for previous 24 hours

 ConditionsComfort  
Time TempWeatherWind HumidityBarometerVisibility
9:00 PM
Mon, Apr 27
50 °FCool.No wind67%30.12 "HgN/A
7:00 PM60 °FRefreshingly cool.9 mph48%30.08 "HgN/A
6:00 PM61 °FRefreshingly cool.8 mph42%30.05 "HgN/A
4:00 PM71 °FMild.10 mph31%30.01 "HgN/A
3:00 PM71 °FMild.12 mph31%30.00 "HgN/A
1:00 PM71 °FMild.8 mph36%30.01 "HgN/A
12:00 PM69 °FMild.6 mph41%30.04 "HgN/A
10:00 AM61 °FRefreshingly cool.6 mph56%30.09 "HgN/A
9:00 AM55 °FCool.7 mph68%30.10 "HgN/A
7:00 AM41 °FQuite cool.3 mph92%30.08 "HgN/A
6:00 AM40 °FQuite cool.3 mph93%30.05 "HgN/A
4:00 AM44 °FQuite cool.12 mph86%30.02 "HgN/A
3:00 AM42 °FQuite cool.3 mph87%30.01 "HgN/A
1:00 AM43 °FQuite cool.5 mph83%30.02 "HgN/A
12:00 AM44 °FQuite cool.7 mph80%30.04 "HgN/A
10:00 PM
Sun, Apr 26
46 °FCool.8 mph73%30.06 "HgN/A
Weather by CustomWeather, © 2015

See weather overviewHow to use our weather pages